Preview of NWS' New Version of Forecast
This preview is not operational and should not be used for support decisions.

Regional Weather Roundup (RWR)

Issued by National Weather Service (NWS)

                            
798 
ASUS46 KSTO 200515
RWRCA 

NORTHERN AND CENTRAL CA REGIONAL WEATHER ROUNDUP
NATIONAL WEATHER SERVICE SACRAMENTO CA 
1000 PM PDT TUE JUN 19 2018

NOTE: FAIR INDICATES FEW OR NO CLOUDS BELOW 12,000 FEET WITH NO
SIGNIFICANT WEATHER AND/OR OBSTRUCTIONS TO VISIBILITY.

CAZ001-003-200600-
NORTHWEST AREA
  
CITY           SKY/WX    TMP DP  RH WIND       PRES   REMARKS
CRESCENT CITY  CLOUDY    54  53  97 CALM      30.07S                  
UKIAH          CLEAR     72  45  37 S3        29.99R                  
$$

CAZ006-505>513-200600-
BAY AREA
  
CITY           SKY/WX    TMP DP  RH WIND       PRES   REMARKS
SANTA ROSA     CLEAR     54  50  86 SE6       30.00R                  
SAN RAFAEL     N/A       58  MM  MM MISG
NAPA           CLEAR     56  51  84 SW8       30.00R                  
CONCORD        CLEAR     63  52  67 S12       29.99R                  
OAKLAND CITY   N/A       MM  MM  MM MISG
OAKLAND        PTCLDY    56  52  86 W9        30.04R                  
SAN FRAN CITY  N/A       54  MM  86 MISG
SAN FRAN ARPT  PTCLDY    57  50  77 W13       30.03R                  
LIVERMORE      CLEAR     58  57  97 NW8       30.00R                  
HAYWARD        CLOUDY    58  52  80 W8        30.04R                  
REDWOOD CITY   N/A       60  MM  68 MISG
MOFFETT ARPT   CLEAR     59  54  83 N8        30.05R                  
SAN JOSE ARPT  PTCLDY    60  54  80 NW9       30.04R                  
$$
CAZ034-037-514>518-200600-
CENTRAL COAST
  
CITY           SKY/WX    TMP DP  RH WIND       PRES   REMARKS
WATSONVILLE    MOCLDY    55  52  89 NE6       30.03R                  
SALINAS        CLOUDY    56  52  86 NW10      30.03S                  
MONTEREY       CLOUDY    54  51  90 SW8       30.05S                  
SAN LUIS OBISP CLOUDY    53  51  93 NW8       29.99S                  
SANTA MARIA    CLOUDY    55  53  93 NW6       30.01R                  
$$
CAZ015-016-200600-
NORTHERN SACRAMENTO VALLEY
  
CITY           SKY/WX    TMP DP  RH WIND       PRES   REMARKS
REDDING        CLEAR     83  48  29 N3        29.87R                  
RED BLUFF      PTCLDY    81  55  40 SE7       29.89R                  
OROVILLE       CLEAR     82  61  48 E5        29.90R                  
$$
CAZ016>018-200600-
SOUTHERN SACRAMENTO VALLEY
  
CITY           SKY/WX    TMP DP  RH WIND       PRES   REMARKS
AUBURN         CLEAR     75  54  46 CALM      29.99R                  
BEALE AFB      CLEAR     77  61  57 SE9       29.88R                  
LINCOLN        FAIR      73  55  53 S7        29.90R                  
MARYSVILLE       N/A     76  61  59 S7        29.89R                  
SAC INTL ARPT  CLEAR     69  54  58 S12       29.90R                  
MATHER AIRPORT CLEAR     70  54  56 S3        29.91R                  
DOWNTOWN SAC   N/A       69  MM  MM MISG
SAC EXEC ARPT  CLEAR     66  52  60 SW8       29.92R                  
VACAVILLE      CLEAR     74  52  46 S3        29.92R                  
TRAVIS AFB     CLEAR     60  48  64 SW26G35   29.92R                  
$$
CAZ019>021-200600-
SAN JOAQUIN VALLEY
  
CITY           SKY/WX    TMP DP  RH WIND       PRES   REMARKS
STOCKTON       CLEAR     72  52  49 W13       29.93R                  
MODESTO        CLEAR     78  51  38 NW9       29.91R                  
MERCED         CLEAR     79  58  48 N9        29.90R                  
LEMOORE        CLEAR     77  54  44 NW8       29.91R                  
FRESNO         CLEAR     85  54  34 NW9       29.91R                  
HANFORD        CLEAR     82  56  40 NW8       29.91R                  
PORTERVILLE    CLEAR     77  60  55 S3        29.92R                  
BAKERSFIELD    CLEAR     83  52  34 N3        29.92R                  
$$
CAZ011-012-071-200600-
NORTHERN MOUNTAINS
  
CITY           SKY/WX    TMP DP  RH WIND       PRES   REMARKS
YREKA          CLEAR     73  42  32 NE9       30.04R                  
MOUNT SHASTA   CLEAR     62  51  67 CALM      30.09R                  
ALTURAS        PTCLDY    63  43  48 NE5       30.14R                  
$$
CAZ011-012-071-200600-
SIERRA NEVADA MTNS
  
CITY           SKY/WX    TMP DP  RH WIND       PRES   REMARKS
BLUE CANYON    CLEAR     64  49  57 CALM      30.21S                  
TRUCKEE        CLEAR     54  46  76 SE5       30.25R                  
TAHOE VLY ARPT CLEAR     56  48  74 CALM      30.25R                  
MAMMOTH LAKES  FAIR      61  41  46 W8        30.30R                  
$$